NI4CE-10 Weather Reports


Display with metric or nautical units.
time (UTC)temp
F
wind
direction
speed
MPH
gust
MPH
rain 1hr
in
rain 24hr
in
rain mn
in
humidity
%
barometer
mb
20260509164523 93 241 15.0 17.0 0.00 0.00 0.00 100 1016.2
20260509164256 92 246 5.0 14.0 0.00 0.00 0.00 100 1016.3
20260509164023 92 246 5.0 14.0 0.00 0.00 0.00 100 1016.3
20260509163523 91 237 7.0 12.0 0.00 0.00 0.00 100 1016.4
20260509163244 92 237 6.0 13.0 0.00 0.00 0.00 100 1016.3
20260509163238 92 206 8.0 16.0 0.00 0.00 0.00 100 1016.4
20260509163023 92 206 8.0 16.0 0.00 0.00 0.00 100 1016.4
20260509162650 92 237 6.0 13.0 0.00 0.00 0.00 100 1016.3
20260509162523 92 237 6.0 13.0 0.00 0.00 0.00 100 1016.3
20260509162144 91 184 5.0 16.0 0.00 0.00 0.00 100 1016.4
20260509162108 91 216 4.0 12.0 0.00 0.00 0.00 100 1016.5
20260509162023 91 184 5.0 16.0 0.00 0.00 0.00 100 1016.4
20260509161523 91 216 4.0 12.0 0.00 0.00 0.00 100 1016.5
20260509161203 92 246 9.0 11.0 0.00 0.00 0.00 100 1016.7
20260509161023 92 194 2.0 9.0 0.00 0.00 0.00 100 1016.6
20260509160523 92 246 9.0 11.0 0.00 0.00 0.00 100 1016.7
20260509160319 91 267 3.0 11.0 0.00 0.00 0.00 100 1016.7
20260509160023 91 206 5.0 12.0 0.00 0.00 0.00 100 1016.8
20260509155724 91 267 3.0 11.0 0.00 0.00 0.00 100 1016.7
20260509155523 91 267 3.0 11.0 0.00 0.00 0.00 100 1016.7
20260509155023 91 237 4.0 9.0 0.00 0.00 0.00 100 1016.8
20260509154735 89 206 8.0 9.0 0.00 0.00 0.00 100 1016.8
20260509154523 89 206 8.0 9.0 0.00 0.00 0.00 100 1016.8
20260509154235 88 149 4.0 9.0 0.00 0.00 0.00 100 1016.8
20260509154023 88 149 4.0 9.0 0.00 0.00 0.00 100 1016.8
20260509153726 89 158 3.0 11.0 0.00 0.00 0.00 100 1016.8
20260509153523 89 158 3.0 11.0 0.00 0.00 0.00 100 1016.8
20260509153023 90 234 3.0 8.0 0.00 0.00 0.00 100 1016.9
20260509152756 88 206 7.0 9.0 0.00 0.00 0.00 100 1016.9
20260509152523 88 206 7.0 9.0 0.00 0.00 0.00 100 1016.9
20260509152023 89 151 2.0 8.0 0.00 0.00 0.00 100 1017.1
20260509151651 87 181 5.0 7.0 0.00 0.00 0.00 100 1017.1
20260509151523 87 181 5.0 7.0 0.00 0.00 0.00 100 1017.1
20260509151149 87 203 4.0 8.0 0.00 0.00 0.00 100 1017.1
20260509151023 87 203 4.0 8.0 0.00 0.00 0.00 100 1017.1
20260509150813 88 237 4.0 7.0 0.00 0.00 0.00 100 1017.1
20260509150733 88 237 4.0 7.0 0.00 0.00 0.00 100 1017.1
20260509150523 88 237 4.0 7.0 0.00 0.00 0.00 100 1017.1
20260509150334 86 181 4.0 8.0 0.00 0.00 0.00 100 1017.3
20260509150330 87 137 1.0 8.0 0.00 0.00 0.00 100 1017.2
20260509150228 86 181 4.0 8.0 0.00 0.00 0.00 100 1017.3
20260509150023 86 181 4.0 8.0 0.00 0.00 0.00 100 1017.3
20260509145723 87 137 1.0 8.0 0.00 0.00 0.00 100 1017.2
20260509145523 87 137 1.0 8.0 0.00 0.00 0.00 100 1017.2
20260509145023 87 227 3.0 6.0 0.00 0.00 0.00 100 1017.3
20260509144736 86 184 4.0 6.0 0.00 0.00 0.00 100 1017.2
20260509144654 86 184 4.0 6.0 0.00 0.00 0.00 100 1017.2
20260509144523 86 184 4.0 6.0 0.00 0.00 0.00 100 1017.2
20260509144023 87 196 3.0 7.0 0.00 0.00 0.00 100 1017.1
20260509143900 87 230 3.0 7.0 0.00 0.00 0.00 100 1017.1
20260509143523 86 177 4.0 7.0 0.00 0.00 0.00 100 1017.0
20260509143023 87 230 3.0 7.0 0.00 0.00 0.00 100 1017.1
20260509142523 86 178 4.0 6.0 0.00 0.00 0.00 100 1017.0
20260509142248 85 181 3.0 6.0 0.00 0.00 0.00 100 1016.9
20260509142023 85 181 3.0 6.0 0.00 0.00 0.00 100 1016.9
20260509141732 86 163 1.0 6.0 0.00 0.00 0.00 100 1016.9
20260509141523 86 163 1.0 6.0 0.00 0.00 0.00 100 1016.9
20260509141111 84 170 3.0 7.0 0.00 0.00 0.00 100 1016.8
20260509141023 85 146 6.0 8.0 0.00 0.00 0.00 100 1016.8
20260509140523 84 170 3.0 7.0 0.00 0.00 0.00 100 1016.8
20260509140212 85 133 4.0 5.0 0.00 0.00 0.00 100 1016.6
20260509140023 85 144 6.0 6.0 0.00 0.00 0.00 100 1016.7
20260509135740 85 133 4.0 5.0 0.00 0.00 0.00 100 1016.6
20260509135523 85 133 4.0 5.0 0.00 0.00 0.00 100 1016.6
20260509135441 84 59 2.0 6.0 0.00 0.00 0.00 100 1016.7
20260509135023 84 59 2.0 6.0 0.00 0.00 0.00 100 1016.7
20260509134716 84 118 5.0 6.0 0.00 0.00 0.00 100 1016.8
20260509134524 84 118 5.0 6.0 0.00 0.00 0.00 100 1016.8
20260509134024 81 171 3.0 6.0 0.00 0.00 0.00 100 1016.7
20260509133722 81 56 2.0 6.0 0.00 0.00 0.00 100 1016.6
20260509133524 81 149 3.0 6.0 0.00 0.00 0.00 100 1016.6
20260509133024 81 56 2.0 6.0 0.00 0.00 0.00 100 1016.6
20260509132524 81 165 3.0 5.0 0.00 0.00 0.00 100 1016.6
20260509132500 82 126 2.0 6.0 0.00 0.00 0.00 100 1016.6
20260509132024 82 126 2.0 6.0 0.00 0.00 0.00 100 1016.6
20260509131524 84 92 4.0 6.0 0.00 0.00 0.00 100 1016.6
20260509131024 82 81 2.0 4.0 0.00 0.00 0.00 100 1016.6
20260509130524 81 21 0.0 0.0 0.00 0.00 0.00 100 1016.5
20260509130024 80 21 0.0 0.0 0.00 0.00 0.00 100 1016.5
20260509125617 79 21 0.0 0.0 0.00 0.00 0.00 100 1016.5
20260509125605 79 21 0.0 0.0 0.00 0.00 0.00 100 1016.5
20260509125524 79 21 0.0 0.0 0.00 0.00 0.00 100 1016.5
20260509125024 79 21 0.0 0.0 0.00 0.00 0.00 100 1016.5
20260509124747 79 21 0.0 0.0 0.00 0.00 0.00 100 1016.5
20260509124524 79 21 0.0 0.0 0.00 0.00 0.00 100 1016.5
20260509124024 79 21 0.0 0.0 0.00 0.00 0.00 100 1016.5
20260509123524 80 21 0.0 0.0 0.00 0.00 0.00 100 1016.5
20260509123259 81 21 0.0 0.0 0.00 0.00 0.00 100 1016.4
20260509123024 81 21 0.0 0.0 0.00 0.00 0.00 100 1016.4
20260509122809 81 21 0.0 0.0 0.00 0.00 0.00 100 1016.4
20260509122524 81 21 0.0 0.0 0.00 0.00 0.00 100 1016.4
20260509122024 80 21 0.0 0.0 0.00 0.00 0.00 100 1016.4
20260509121524 80 21 0.0 0.0 0.00 0.00 0.00 100 1016.3
20260509121024 80 21 0.0 0.0 0.00 0.00 0.00 100 1016.2
20260509120524 79 21 0.0 1.0 0.00 0.00 0.00 100 1016.0
20260509120024 78 71 0.0 0.0 0.00 0.00 0.00 100 1015.9
20260509115524 78 71 0.0 0.0 0.00 0.00 0.00 100 1016.0
20260509115024 76 71 0.0 0.0 0.00 0.00 0.00 100 1015.8
20260509114648 70 71 0.0 0.0 0.00 0.00 0.00 100 1015.8
20260509114524 75 71 0.0 0.0 0.00 0.00 0.00 100 1015.8
20260509114041 72 71 0.0 0.0 0.00 0.00 0.00 100 1015.8
20260509114024 74 71 0.0 0.0 0.00 0.00 0.00 100 1015.8
20260509113524 72 71 0.0 0.0 0.00 0.00 0.00 100 1015.8
20260509113024 72 71 0.0 0.0 0.00 0.00 0.00 100 1015.8
20260509112524 70 71 0.0 0.0 0.00 0.00 0.00 100 1015.8
20260509112501 68 71 0.0 0.0 0.00 0.00 0.00 100 1015.6
20260509112024 69 71 0.0 0.0 0.00 0.00 0.00 100 1015.7
20260509111813 68 71 0.0 0.0 0.00 0.00 0.00 100 1015.7
20260509111524 68 71 0.0 0.0 0.00 0.00 0.00 100 1015.7
20260509111024 68 71 0.0 0.0 0.00 0.00 0.00 100 1015.6
20260509110524 68 71 0.0 0.0 0.00 0.00 0.00 100 1015.6
20260509110145 67 71 0.0 0.0 0.00 0.00 0.00 100 1015.6
20260509110024 67 71 0.0 0.0 0.00 0.00 0.00 100 1015.6
20260509105524 67 71 0.0 0.0 0.00 0.00 0.00 100 1015.5
20260509105024 67 71 0.0 0.0 0.00 0.00 0.00 100 1015.6
20260509104524 67 71 0.0 0.0 0.00 0.00 0.00 100 1015.5
20260509104458 67 71 0.0 0.0 0.00 0.00 0.00 100 1015.5
20260509104024 67 71 0.0 0.0 0.00 0.00 0.00 100 1015.5
20260509103524 67 71 0.0 0.0 0.00 0.00 0.00 100 1015.4
20260509103225 67 71 0.0 0.0 0.00 0.00 0.00 100 1015.4
20260509103024 67 71 0.0 0.0 0.00 0.00 0.00 100 1015.4
20260509102727 68 71 0.0 0.0 0.00 0.00 0.00 100 1015.6
20260509102524 68 71 0.0 0.0 0.00 0.00 0.00 100 1015.5
20260509102024 68 71 0.0 0.0 0.00 0.00 0.00 100 1015.6
20260509101524 68 71 0.0 0.0 0.00 0.00 0.00 100 1015.6
20260509101024 68 71 0.0 0.0 0.00 0.00 0.00 100 1015.5
20260509100836 68 71 0.0 0.0 0.00 0.00 0.00 100 1015.6
20260509100524 68 71 0.0 0.0 0.00 0.00 0.00 100 1015.6
20260509100024 68 71 0.0 0.0 0.00 0.00 0.00 100 1015.6
20260509100019 68 71 0.0 0.0 0.00 0.00 0.00 100 1015.5
20260509095812 67 71 0.0 0.0 0.00 0.00 0.00 100 1015.6
20260509095524 67 71 0.0 0.0 0.00 0.00 0.00 100 1015.6
20260509095025 68 71 0.0 0.0 0.00 0.00 0.00 100 1015.5
20260509094525 68 71 0.0 0.0 0.00 0.00 0.00 100 1015.5
20260509094502 68 71 0.0 0.0 0.00 0.00 0.00 100 1015.5
20260509094025 68 71 0.0 0.0 0.00 0.00 0.00 100 1015.5
20260509093525 68 71 0.0 0.0 0.00 0.00 0.00 100 1015.5
20260509093025 68 71 0.0 0.0 0.00 0.00 0.00 100 1015.5
20260509092947 68 71 0.0 0.0 0.00 0.00 0.00 100 1015.5
20260509092854 68 71 0.0 0.0 0.00 0.00 0.00 100 1015.5
20260509092525 68 71 0.0 0.0 0.00 0.00 0.00 100 1015.5
20260509092025 68 71 0.0 0.0 0.00 0.00 0.00 100 1015.6
20260509091731 68 71 0.0 0.0 0.00 0.00 0.00 100 1015.7
20260509091525 68 71 0.0 0.0 0.00 0.00 0.00 100 1015.7
20260509091025 68 71 0.0 0.0 0.00 0.00 0.00 100 1015.7
20260509090525 68 71 0.0 0.0 0.00 0.00 0.00 100 1015.6
20260509090025 68 71 0.0 0.0 0.00 0.00 0.00 100 1015.6
20260509085525 68 71 0.0 0.0 0.00 0.00 0.00 100 1015.5
20260509085025 68 71 0.0 0.0 0.00 0.00 0.00 100 1015.7
20260509084525 68 71 0.0 0.0 0.00 0.00 0.00 100 1015.6
20260509084025 69 71 0.0 0.0 0.00 0.00 0.00 100 1015.6
20260509083525 69 71 0.0 0.0 0.00 0.00 0.00 100 1015.7
20260509083025 69 71 0.0 0.0 0.00 0.00 0.00 100 1015.6
20260509082525 69 71 0.0 0.0 0.00 0.00 0.00 100 1015.8
20260509082025 69 71 0.0 0.0 0.00 0.00 0.00 100 1015.8
20260509081525 69 71 0.0 0.0 0.00 0.00 0.00 100 1015.9
20260509081025 69 71 0.0 0.0 0.00 0.00 0.00 100 1015.9
20260509080721 69 71 0.0 0.0 0.00 0.00 0.00 100 1015.9
20260509080525 69 71 0.0 0.0 0.00 0.00 0.00 100 1015.9
20260509080025 69 71 0.0 0.0 0.00 0.00 0.00 100 1015.9
20260509075525 70 71 0.0 2.0 0.00 0.00 0.00 100 1016.1
20260509075025 69 19 0.0 0.0 0.00 0.00 0.00 100 1016.1
20260509074525 69 19 0.0 0.0 0.00 0.00 0.00 100 1016.1
20260509074025 70 19 0.0 0.0 0.00 0.00 0.00 100 1016.1
20260509073808 70 19 0.0 0.0 0.00 0.00 0.00 100 1016.2
20260509073525 70 19 0.0 0.0 0.00 0.00 0.00 100 1016.2
20260509073025 70 19 0.0 0.0 0.00 0.00 0.00 100 1016.2
20260509072525 71 19 0.0 0.0 0.00 0.00 0.00 100 1016.1
20260509072203 72 9 0.0 1.0 0.00 0.00 0.00 100 1016.4
20260509072025 72 19 0.0 0.0 0.00 0.00 0.00 100 1016.1
20260509071525 72 19 0.0 1.0 0.00 0.00 0.00 100 1016.3
20260509071025 72 9 0.0 0.0 0.00 0.00 0.00 100 1016.3
20260509070525 72 9 0.0 1.0 0.00 0.00 0.00 100 1016.4
20260509070025 72 9 1.0 4.0 0.00 0.00 0.00 100 1016.4
20260509065525 72 355 0.0 0.0 0.00 0.00 0.00 100 1016.5
20260509065353 72 355 0.0 0.0 0.00 0.00 0.00 100 1016.6
20260509065317 72 355 0.0 0.0 0.00 0.00 0.00 100 1016.6
20260509065028 71 355 0.0 3.0 0.00 0.00 0.00 100 1016.6
20260509065025 72 355 0.0 0.0 0.00 0.00 0.00 100 1016.6
20260509064745 71 355 0.0 3.0 0.00 0.00 0.00 100 1016.6
20260509064525 71 355 0.0 3.0 0.00 0.00 0.00 100 1016.6
20260509064255 71 45 0.0 0.0 0.00 0.00 0.00 100 1016.8
20260509064025 70 45 0.0 0.0 0.00 0.00 0.00 100 1016.6
20260509063815 70 45 0.0 0.0 0.00 0.00 0.00 100 1016.7
20260509063525 70 45 0.0 0.0 0.00 0.00 0.00 100 1016.7
20260509063218 70 45 0.0 0.0 0.00 0.00 0.00 100 1016.8
20260509063025 70 45 0.0 0.0 0.00 0.00 0.00 100 1016.8
20260509062525 71 45 0.0 0.0 0.00 0.00 0.00 100 1016.8
20260509062207 71 45 0.0 0.0 0.00 0.00 0.00 100 1017.0
20260509062025 71 45 0.0 0.0 0.00 0.00 0.00 100 1016.8
20260509061525 71 45 0.0 0.0 0.00 0.00 0.00 100 1017.0
20260509061025 71 45 0.0 0.0 0.00 0.00 0.00 100 1017.0
20260509060827 72 45 0.0 0.0 0.00 0.00 0.00 100 1017.0
20260509060525 72 45 0.0 0.0 0.00 0.00 0.00 100 1017.0
20260509060025 72 45 0.0 0.0 0.00 0.00 0.00 100 1017.0
20260509055716 72 45 0.0 0.0 0.00 0.00 0.00 100 1017.2
20260509055608 72 45 0.0 0.0 0.00 0.00 0.00 100 1017.2
20260509055530 73 45 0.0 0.0 0.00 0.00 0.00 100 1017.1
20260509055525 72 45 0.0 0.0 0.00 0.00 0.00 100 1017.2
20260509055331 73 45 0.0 0.0 0.00 0.00 0.00 100 1017.4
20260509055026 73 45 0.0 0.0 0.00 0.00 0.00 100 1017.1
20260509054803 73 45 0.0 0.0 0.00 0.00 0.00 100 1017.2
20260509054526 73 45 0.0 0.0 0.00 0.00 0.00 100 1017.2
20260509054026 73 45 0.0 0.0 0.00 0.00 0.00 100 1017.3
20260509053526 73 45 0.0 0.0 0.00 0.00 0.00 100 1017.4
20260509053026 74 45 0.0 0.0 0.00 0.00 0.00 100 1017.4
20260509052526 74 45 0.0 0.0 0.00 0.00 0.00 100 1017.4
20260509052158 74 45 0.0 0.0 0.00 0.00 0.00 100 1017.4
20260509052026 74 45 0.0 0.0 0.00 0.00 0.00 100 1017.4
20260509051526 74 45 0.0 0.0 0.00 0.00 0.00 100 1017.5
20260509051026 75 45 0.0 4.0 0.00 0.00 0.00 100 1017.5
20260509050526 74 53 1.0 2.0 0.00 0.00 0.00 100 1017.6
20260509050130 74 18 0.0 0.0 0.00 0.00 0.00 100 1017.6
20260509050026 74 18 0.0 0.0 0.00 0.00 0.00 100 1017.6
20260509045526 75 18 0.0 0.0 0.00 0.00 0.00 100 1017.6
20260509045130 75 18 0.0 0.0 0.00 0.00 0.00 100 1017.6
20260509045026 75 18 0.0 0.0 0.00 0.00 0.00 100 1017.6
20260509044652 75 18 0.0 1.0 0.00 0.00 0.00 100 1017.7
20260509044526 75 18 0.0 1.0 0.00 0.00 0.00 100 1017.7
20260509044026 75 21 0.0 3.0 0.00 0.00 0.00 100 1017.8
20260509043526 76 61 0.0 0.0 0.00 0.00 0.00 100 1017.9
20260509043026 76 61 0.0 4.0 0.00 0.00 0.00 100 1018.0
20260509042526 77 47 0.0 4.0 0.00 0.00 0.00 100 1018.0
20260509042215 76 68 3.0 5.0 0.00 0.00 0.00 100 1017.9
20260509042026 76 68 3.0 5.0 0.00 0.00 0.00 100 1017.9
20260509041526 77 88 3.0 4.0 0.00 0.00 0.00 100 1017.9
20260509041351 77 2 2.0 8.0 0.00 0.00 0.00 100 1017.7
20260509041026 77 18 0.0 4.0 0.00 0.00 0.00 100 1017.8
20260509040526 77 33 2.0 5.0 0.00 0.00 0.00 100 1017.7
20260509040026 77 2 2.0 8.0 0.00 0.00 0.00 100 1017.7
20260509035724 77 16 2.0 7.0 0.00 0.00 0.00 100 1017.6
20260509035526 77 16 2.0 7.0 0.00 0.00 0.00 100 1017.6
20260509035026 77 19 3.0 9.0 0.00 0.00 0.00 100 1017.7
20260509034526 77 358 7.0 8.0 0.00 0.00 0.00 100 1017.7
20260509034026 77 351 4.0 8.0 0.00 0.00 0.00 100 1017.7
20260509033802 78 340 4.0 9.0 0.00 0.00 0.00 100 1017.6
20260509033613 78 351 6.0 9.0 0.00 0.00 0.00 100 1017.6
20260509033526 78 340 4.0 9.0 0.00 0.00 0.00 100 1017.6
20260509033026 78 351 6.0 9.0 0.00 0.00 0.00 100 1017.6
20260509032526 78 29 1.0 10.0 0.00 0.00 0.00 100 1017.6
20260509032401 78 1 5.0 10.0 0.00 0.00 0.00 100 1017.5
20260509032026 78 1 5.0 10.0 0.00 0.00 0.00 100 1017.5
20260509031741 78 334 5.0 11.0 0.00 0.00 0.00 100 1017.6
20260509031526 78 334 5.0 11.0 0.00 0.00 0.00 100 1017.6
20260509031519 78 347 11.0 11.0 0.00 0.00 0.00 100 1017.6
20260509031026 78 347 11.0 11.0 0.00 0.00 0.00 100 1017.6
20260509030526 78 338 5.0 8.0 0.00 0.00 0.00 100 1017.6
20260509030026 78 7 3.0 8.0 0.00 0.00 0.00 100 1017.5
20260509025658 78 324 1.0 8.0 0.00 0.00 0.00 100 1017.3
20260509025526 77 25 1.0 9.0 0.00 0.00 0.00 100 1017.5
20260509025026 77 329 5.0 7.0 0.00 0.00 0.00 100 1017.5
20260509024526 78 16 0.0 7.0 0.00 0.00 0.00 100 1017.5
20260509024501 78 1 3.0 8.0 0.00 0.00 0.00 100 1017.5
20260509024026 78 1 3.0 8.0 0.00 0.00 0.00 100 1017.5
20260509023526 78 18 4.0 8.0 0.00 0.00 0.00 100 1017.4
20260509023026 78 324 1.0 8.0 0.00 0.00 0.00 100 1017.3
20260509022526 78 4 4.0 9.0 0.00 0.00 0.00 100 1017.2
20260509022026 78 338 4.0 8.0 0.00 0.00 0.00 100 1017.1
20260509021526 78 316 4.0 8.0 0.00 0.00 0.00 100 1017.0
20260509021026 78 330 3.0 6.0 0.00 0.00 0.00 100 1017.0
20260509020714 78 336 4.0 10.0 0.00 0.00 0.00 100 1017.0
20260509020526 78 336 4.0 10.0 0.00 0.00 0.00 100 1017.0
20260509020026 78 317 2.0 8.0 0.00 0.00 0.00 100 1016.9
20260509015709 78 326 7.0 8.0 0.00 0.00 0.00 100 1016.9
20260509015527 78 326 7.0 8.0 0.00 0.00 0.00 100 1016.9
20260509015027 78 2 0.0 9.0 0.00 0.00 0.00 100 1016.8
20260509014527 78 344 1.0 7.0 0.00 0.00 0.00 100 1016.7
20260509014153 78 351 2.0 7.0 0.00 0.00 0.00 100 1016.7
20260509014027 78 351 2.0 7.0 0.00 0.00 0.00 100 1016.7
20260509013527 78 312 6.0 9.0 0.00 0.00 0.00 100 1016.6
20260509013525 79 291 2.0 8.0 0.00 0.00 0.00 100 1016.7
20260509013027 79 291 2.0 8.0 0.00 0.00 0.00 100 1016.7
20260509012742 80 350 2.0 8.0 0.00 0.00 0.00 100 1016.5
20260509012527 79 305 3.0 8.0 0.00 0.00 0.00 100 1016.6
20260509012027 79 344 2.0 7.0 0.00 0.00 0.00 100 1016.6
20260509011658 79 327 7.0 7.0 0.00 0.00 0.00 100 1016.6
20260509011527 79 327 7.0 7.0 0.00 0.00 0.00 100 1016.6
20260509011027 79 322 5.0 8.0 0.00 0.00 0.00 100 1016.5
20260509010634 80 350 2.0 8.0 0.00 0.00 0.00 100 1016.5
20260509010527 80 350 2.0 8.0 0.00 0.00 0.00 100 1016.5
20260509010508 80 323 7.0 9.0 0.00 0.00 0.00 100 1016.3
20260509010027 80 347 3.0 7.0 0.00 0.00 0.00 100 1016.4
20260509005527 80 323 7.0 9.0 0.00 0.00 0.00 100 1016.3
20260509005505 80 15 2.0 7.0 0.00 0.00 0.00 100 1016.1
20260509005122 80 15 2.0 7.0 0.00 0.00 0.00 100 1016.1
20260509005027 80 15 2.0 7.0 0.00 0.00 0.00 100 1016.1
20260509004724 81 309 1.0 8.0 0.00 0.00 0.00 100 1016.0
20260509004527 81 309 1.0 8.0 0.00 0.00 0.00 100 1016.0
20260509004215 81 355 5.0 10.0 0.00 0.00 0.00 100 1016.0
20260509004027 81 355 5.0 10.0 0.00 0.00 0.00 100 1016.0
20260509003607 83 322 2.0 5.0 0.00 0.00 0.00 100 1015.5
20260509003527 81 316 4.0 8.0 0.00 0.00 0.00 100 1015.9
20260509003522 83 322 2.0 5.0 0.00 0.00 0.00 100 1015.5
20260509003143 81 317 3.0 7.0 0.00 0.00 0.00 100 1015.9
20260509003027 81 317 3.0 7.0 0.00 0.00 0.00 100 1015.9
20260509002701 81 1 2.0 5.0 0.00 0.00 0.00 100 1015.8
20260509002527 81 1 2.0 5.0 0.00 0.00 0.00 100 1015.8
20260509002143 82 2 1.0 6.0 0.00 0.00 0.00 100 1015.7
20260509002027 82 2 1.0 6.0 0.00 0.00 0.00 100 1015.7
20260509001527 82 302 4.0 4.0 0.00 0.00 0.00 100 1015.7
20260509001027 83 296 0.0 3.0 0.00 0.00 0.00 100 1015.6
20260509000619 83 322 2.0 5.0 0.00 0.00 0.00 100 1015.5
20260509000527 83 322 2.0 5.0 0.00 0.00 0.00 100 1015.5
20260509000214 83 271 0.0 2.0 0.00 0.00 0.00 100 1015.4
20260509000117 83 271 0.0 2.0 0.00 0.00 0.00 100 1015.4
20260509000027 83 271 0.0 2.0 0.00 0.00 0.00 100 1015.4
20260508235527 84 330 0.0 1.0 0.00 0.00 0.00 100 1015.4
20260508235027 85 306 0.0 3.0 0.00 0.00 0.00 100 1015.4
20260508234527 85 7 0.0 3.0 0.00 0.00 0.00 100 1015.3
20260508234140 86 296 0.0 4.0 0.00 0.00 0.00 100 1015.1
20260508234027 85 315 1.0 5.0 0.00 0.00 0.00 100 1015.2
20260508233701 86 296 0.0 4.0 0.00 0.00 0.00 100 1015.1
20260508233527 86 296 0.0 4.0 0.00 0.00 0.00 100 1015.1
20260508233148 86 293 3.0 8.0 0.00 0.00 0.00 100 1015.1
20260508233027 86 293 3.0 8.0 0.00 0.00 0.00 100 1015.1
20260508232527 86 312 5.0 11.0 0.00 0.00 0.00 100 1015.0
20260508232159 87 307 5.0 14.0 0.00 0.00 0.00 100 1015.0
20260508232027 87 307 5.0 14.0 0.00 0.00 0.00 100 1015.0
20260508231709 87 40 2.0 6.0 0.00 0.00 0.00 100 1014.9
20260508231618 87 40 2.0 6.0 0.00 0.00 0.00 100 1014.9
20260508231527 87 40 2.0 6.0 0.00 0.00 0.00 100 1014.9
20260508231245 87 320 3.0 13.0 0.00 0.00 0.00 100 1014.9
20260508231027 87 320 3.0 13.0 0.00 0.00 0.00 100 1014.9
20260508230527 87 345 3.0 9.0 0.00 0.00 0.00 100 1014.8
20260508230124 88 258 6.0 12.0 0.00 0.00 0.00 100 1014.7
20260508230027 88 258 6.0 12.0 0.00 0.00 0.00 100 1014.7
20260508225629 88 312 6.0 10.0 0.00 0.00 0.00 100 1014.7
20260508225527 88 312 6.0 10.0 0.00 0.00 0.00 100 1014.7
20260508225321 90 281 5.0 13.0 0.00 0.00 0.00 100 1014.5
20260508225317 91 291 3.0 13.0 0.00 0.00 0.00 100 1014.4
20260508225154 88 322 9.0 10.0 0.00 0.00 0.00 100 1014.6
20260508225027 88 322 9.0 10.0 0.00 0.00 0.00 100 1014.6
20260508224616 89 302 5.0 11.0 0.00 0.00 0.00 100 1014.5
20260508224527 89 302 5.0 11.0 0.00 0.00 0.00 100 1014.5
20260508224126 90 323 7.0 12.0 0.00 0.00 0.00 100 1014.5
20260508224027 90 323 7.0 12.0 0.00 0.00 0.00 100 1014.5
20260508223703 90 298 5.0 11.0 0.00 0.00 0.00 100 1014.5
20260508223527 90 298 5.0 11.0 0.00 0.00 0.00 100 1014.5
20260508223138 90 281 5.0 13.0 0.00 0.00 0.00 100 1014.5
20260508223027 90 281 5.0 13.0 0.00 0.00 0.00 100 1014.5
20260508222657 91 291 3.0 13.0 0.00 0.00 0.00 100 1014.4
20260508222527 91 291 3.0 13.0 0.00 0.00 0.00 100 1014.4
20260508222228 91 310 4.0 11.0 0.00 0.00 0.00 100 1014.3
20260508222027 91 310 4.0 11.0 0.00 0.00 0.00 100 1014.3
20260508221655 91 317 7.0 8.0 0.00 0.00 0.00 100 1014.3
20260508221527 91 317 7.0 8.0 0.00 0.00 0.00 100 1014.3
20260508221122 91 324 0.0 7.0 0.00 0.00 0.00 100 1014.4
20260508221027 91 324 0.0 7.0 0.00 0.00 0.00 100 1014.4
20260508220700 91 258 0.0 5.0 0.00 0.00 0.00 100 1014.4
20260508220527 91 258 0.0 5.0 0.00 0.00 0.00 100 1014.4
20260508220118 92 344 4.0 6.0 0.00 0.00 0.00 100 1014.5
20260508220028 92 303 2.0 5.0 0.00 0.00 0.00 100 1014.5
20260508215629 92 344 4.0 6.0 0.00 0.00 0.00 100 1014.5
20260508215528 92 344 4.0 6.0 0.00 0.00 0.00 100 1014.5
20260508215125 93 324 0.0 6.0 0.00 0.00 0.00 100 1014.5
20260508215028 93 324 0.0 6.0 0.00 0.00 0.00 100 1014.5
20260508214629 93 350 4.0 7.0 0.00 0.00 0.00 100 1014.5
20260508214528 93 350 4.0 7.0 0.00 0.00 0.00 100 1014.5
20260508214028 93 355 5.0 7.0 0.00 0.00 0.00 100 1014.4
20260508213628 93 15 6.0 9.0 0.00 0.00 0.00 100 1014.4
20260508213528 93 15 6.0 9.0 0.00 0.00 0.00 100 1014.4
20260508213028 94 338 8.0 10.0 0.00 0.00 0.00 100 1014.4
20260508212630 94 47 2.0 6.0 0.00 0.00 0.00 100 1014.4
20260508212528 94 47 2.0 6.0 0.00 0.00 0.00 100 1014.4
20260508212028 94 9 3.0 9.0 0.00 0.00 0.00 100 1014.4
20260508211528 94 331 4.0 5.0 0.00 0.00 0.00 100 1014.4
20260508211317 94 341 4.0 8.0 0.00 0.00 0.00 100 1014.5
20260508211144 94 22 2.0 8.0 0.00 0.00 0.00 100 1014.4
20260508211028 94 22 2.0 8.0 0.00 0.00 0.00 100 1014.4
20260508210631 93 348 6.0 10.0 0.00 0.00 0.00 100 1014.5
20260508210528 93 348 6.0 10.0 0.00 0.00 0.00 100 1014.5
20260508210110 94 35 4.0 9.0 0.00 0.00 0.00 100 1014.5
20260508210028 94 35 4.0 9.0 0.00 0.00 0.00 100 1014.5
20260508205625 95 1 4.0 8.0 0.00 0.00 0.00 100 1014.5
20260508205528 95 1 4.0 8.0 0.00 0.00 0.00 100 1014.5
20260508205126 93 8 7.0 8.0 0.00 0.00 0.00 100 1014.6
20260508205028 93 8 7.0 8.0 0.00 0.00 0.00 100 1014.6
20260508204631 94 341 4.0 8.0 0.00 0.00 0.00 100 1014.5
20260508204528 94 341 4.0 8.0 0.00 0.00 0.00 100 1014.5
20260508204342 95 358 7.0 8.0 0.00 0.00 0.00 100 1014.6
20260508204337 94 74 1.0 5.0 0.00 0.00 0.00 100 1014.7
20260508204028 95 358 7.0 8.0 0.00 0.00 0.00 100 1014.6
20260508203528 94 74 1.0 5.0 0.00 0.00 0.00 100 1014.7
20260508203028 96 282 0.0 6.0 0.00 0.00 0.00 100 1014.7
20260508202631 95 7 1.0 6.0 0.00 0.00 0.00 100 1014.7
20260508202528 95 7 1.0 6.0 0.00 0.00 0.00 100 1014.7
20260508202126 95 262 0.0 9.0 0.00 0.00 0.00 100 1014.9
20260508202028 95 262 0.0 9.0 0.00 0.00 0.00 100 1014.9
20260508201528 96 277 0.0 8.0 0.00 0.00 0.00 100 1014.9
20260508201159 96 275 1.0 9.0 0.00 0.00 0.00 100 1015.0
20260508201028 96 275 1.0 9.0 0.00 0.00 0.00 100 1015.0
20260508200716 96 15 0.0 7.0 0.00 0.00 0.00 100 1015.0
20260508200528 96 15 0.0 7.0 0.00 0.00 0.00 100 1015.0
20260508200332 95 296 2.0 7.0 0.00 0.00 0.00 100 1015.2
20260508200028 95 296 2.0 7.0 0.00 0.00 0.00 100 1015.2
20260508195839 93 54 1.0 9.0 0.00 0.00 0.00 100 1015.1
20260508195722 93 54 1.0 9.0 0.00 0.00 0.00 100 1015.1
20260508195528 93 54 1.0 9.0 0.00 0.00 0.00 100 1015.1
20260508195253 96 19 4.0 7.0 0.00 0.00 0.00 100 1015.4
20260508195028 92 26 5.0 10.0 0.00 0.00 0.00 100 1015.2
20260508194634 96 19 4.0 7.0 0.00 0.00 0.00 100 1015.4
20260508194528 96 19 4.0 7.0 0.00 0.00 0.00 100 1015.4
20260508194144 93 14 1.0 5.0 0.00 0.00 0.00 100 1015.8
20260508194028 96 11 2.0 12.0 0.00 0.00 0.00 100 1015.5
20260508193659 95 11 8.0 10.0 0.00 0.00 0.00 100 1015.6
20260508193528 95 11 8.0 10.0 0.00 0.00 0.00 100 1015.6
20260508193150 96 333 6.0 10.0 0.00 0.00 0.00 100 1015.7
20260508193028 96 333 6.0 10.0 0.00 0.00 0.00 100 1015.7
20260508192528 95 282 6.0 9.0 0.00 0.00 0.00 100 1015.8
20260508192028 93 14 1.0 5.0 0.00 0.00 0.00 100 1015.8
20260508191634 95 37 4.0 9.0 0.00 0.00 0.00 100 1016.0
20260508191528 95 37 4.0 9.0 0.00 0.00 0.00 100 1016.0
20260508191130 96 319 6.0 9.0 0.00 0.00 0.00 100 1016.0
20260508191028 96 319 6.0 9.0 0.00 0.00 0.00 100 1016.0
20260508190659 94 324 7.0 12.0 0.00 0.00 0.00 100 1015.9
20260508190528 94 324 7.0 12.0 0.00 0.00 0.00 100 1015.9
20260508190144 94 232 0.0 7.0 0.00 0.00 0.00 100 1015.9
20260508190028 94 232 0.0 7.0 0.00 0.00 0.00 100 1015.9
20260508185654 95 2 4.0 7.0 0.00 0.00 0.00 100 1016.0
20260508185528 95 2 4.0 7.0 0.00 0.00 0.00 100 1016.0
20260508185423 95 262 4.0 7.0 0.00 0.00 0.00 100 1016.1
20260508185028 95 262 4.0 7.0 0.00 0.00 0.00 100 1016.1
20260508184734 96 223 1.0 9.0 0.00 0.00 0.00 100 1016.2
20260508184655 96 223 1.0 9.0 0.00 0.00 0.00 100 1016.2
20260508184528 96 223 1.0 9.0 0.00 0.00 0.00 100 1016.2
20260508184028 96 309 1.0 9.0 0.00 0.00 0.00 100 1016.4
20260508183528 96 303 5.0 7.0 0.00 0.00 0.00 100 1016.4
20260508183028 95 28 0.0 11.0 0.00 0.00 0.00 100 1016.4
20260508182625 97 327 9.0 10.0 0.00 0.00 0.00 100 1016.6
20260508182528 97 327 9.0 10.0 0.00 0.00 0.00 100 1016.6
20260508182152 96 305 5.0 6.0 0.00 0.00 0.00 100 1016.7
20260508182028 96 305 5.0 6.0 0.00 0.00 0.00 100 1016.7
20260508181648 95 37 3.0 11.0 0.00 0.00 0.00 100 1016.9
20260508181528 95 37 3.0 11.0 0.00 0.00 0.00 100 1016.9
20260508181028 94 15 3.0 11.0 0.00 0.00 0.00 100 1016.9
20260508180629 97 16 2.0 6.0 0.00 0.00 0.00 100 1016.9
20260508180528 97 16 2.0 6.0 0.00 0.00 0.00 100 1016.9
20260508180122 96 330 6.0 11.0 0.00 0.00 0.00 100 1017.1
20260508180029 96 330 6.0 11.0 0.00 0.00 0.00 100 1017.1
20260508175640 94 354 4.0 10.0 0.00 0.00 0.00 100 1017.4
20260508175622 95 344 7.0 7.0 0.00 0.00 0.00 100 1017.0
20260508175529 95 344 7.0 7.0 0.00 0.00 0.00 100 1017.0
20260508175153 96 30 0.0 10.0 0.00 0.00 0.00 100 1017.1
20260508175029 96 30 0.0 10.0 0.00 0.00 0.00 100 1017.1
20260508174649 93 319 8.0 8.0 0.00 0.00 0.00 100 1017.2
20260508174529 93 319 8.0 8.0 0.00 0.00 0.00 100 1017.2
20260508174029 94 357 5.0 9.0 0.00 0.00 0.00 100 1017.3
20260508173651 95 16 3.0 9.0 0.00 0.00 0.00 100 1017.3
20260508173529 95 16 3.0 9.0 0.00 0.00 0.00 100 1017.3
20260508173125 94 15 6.0 11.0 0.00 0.00 0.00 100 1017.2
20260508173029 94 15 6.0 11.0 0.00 0.00 0.00 100 1017.2
20260508172627 93 1 6.0 7.0 0.00 0.00 0.00 100 1017.2
20260508172529 93 1 6.0 7.0 0.00 0.00 0.00 100 1017.2
20260508172153 93 347 4.0 9.0 0.00 0.00 0.00 100 1017.3
20260508172029 93 347 4.0 9.0 0.00 0.00 0.00 100 1017.3
20260508171624 94 354 4.0 10.0 0.00 0.00 0.00 100 1017.4
20260508171529 94 354 4.0 10.0 0.00 0.00 0.00 100 1017.4
20260508171212 95 320 6.0 9.0 0.00 0.00 0.00 100 1017.4
20260508171029 95 320 6.0 9.0 0.00 0.00 0.00 100 1017.4
20260508170640 94 260 5.0 10.0 0.00 0.00 0.00 100 1017.5
20260508170529 94 260 5.0 10.0 0.00 0.00 0.00 100 1017.5
20260508170150 92 343 7.0 9.0 0.00 0.00 0.00 100 1017.6
20260508170029 92 343 7.0 9.0 0.00 0.00 0.00 100 1017.6
20260508165608 94 357 1.0 11.0 0.00 0.00 0.00 100 1017.7
20260508165529 94 357 1.0 11.0 0.00 0.00 0.00 100 1017.7
20260508165029 95 331 7.0 10.0 0.00 0.00 0.00 100 1017.7